map of NSA home
Great Circle Mapper logo
NSA - Airport
Location
City:  Natal, Rio Grande do Norte, Brazil
Near (Alt.):Parnamirim
Name:Augusto Severo International Airport
Old (Alt.):Parnamirim Airport
ICAO:SBNT
IATA:NSA

Details
Type:Airport (Aerodrome, Airfield)
Use:Public/Civil, International (customs port of entry)
Latitude:5°54'30"S (-5.908332)
Longitude:35°14'57"W (-35.249166)
Elevation:167 ft (51 m)
Variation:21.46°W (WMM2015 magnetic declination)
0.04° annual change
Runways:3
Longest:8530 × 148 ft (2600 × 45 m), paved

Time
Time Zone:UTC-3
Local Time:

Weather
METAR:SBNT 062200Z 17005KT 9999 FEW020 FEW030TCU SCT070 27/23 Q1014
TAF:SBNT 062125Z 0700/0724 18007KT 9999 FEW017 TN23/0707Z TX30/0716Z
BECMG 0710/0712 15012KT SCT020
RMK PDG

Related Locations
Nearby:
Farthest:ULI: 12000 mi / 19313 km
Falalop Island, Ulithi Atoll, YAP, FM

Find:

   beyond  
but within

Other Information
Maps:
NOTAMs:
Links:
Sources:

  
flag of Brazil
flag of Rio Grande do Norte
  

Sectional Chart

Flight Planning
at skyvector.com

Satellite Image

Google Maps Satellite view

 

Copyright © 2004-2016 Karl L. Swartz. All rights reserved.
The Great Circle Mapper name and logo are trademarks of the Great Circle Mapper.
All other trademarks mentioned herein belong to their respective owners.
Please see credits for attibutions and further copyright information.

  Follow gcmap on Facebook Follow gcmap on Twitter Follow gcmap on Google+ GCmap on LinkedIn

hCard Microformat

Geo Microformat